This is the latest recevied weather packets stored in our database for station/object VK3AFQ-13. If no packets are shown the sender has not sent any weather packets the latest 10 day(s).
| Time | Temp. | Humidity | Pressure | Rain* | Wind** | Luminosity | Snow |
|---|---|---|---|---|---|---|---|
| 1777502764 | 15° C | 63% | 1027.8 hPa | - | - | - | - |
| 1777501864 | 14.44° C | 64% | 1027.8 hPa | - | - | - | - |
| 1777500963 | 13.89° C | 66% | 1027.8 hPa | - | - | - | - |
| 1777500062 | 13.33° C | 66% | 1027.5 hPa | - | - | - | - |
| 1777499164 | 12.78° C | 68% | 1027.4 hPa | - | - | - | - |
| 1777498263 | 12.78° C | 68% | 1027.3 hPa | - | - | - | - |
| 1777497363 | 12.22° C | 68% | 1027 hPa | - | - | - | - |
| 1777496461 | 12.22° C | 68% | 1027 hPa | - | - | - | - |
| 1777495564 | 12.22° C | 68% | 1026.9 hPa | - | - | - | - |
| 1777494663 | 12.78° C | 66% | 1026.9 hPa | - | - | - | - |
| 1777493763 | 12.78° C | 65% | 1026.8 hPa | - | - | - | - |
| 1777492862 | 13.33° C | 64% | 1026.7 hPa | - | - | - | - |
| 1777491964 | 13.33° C | 62% | 1026.5 hPa | - | - | - | - |
| 1777491064 | 13.89° C | 61% | 1026.4 hPa | - | - | - | - |
| 1777490163 | 14.44° C | 60% | 1026.2 hPa | - | - | - | - |
| 1777489262 | 14.44° C | 60% | 1026.1 hPa | - | - | - | - |
| 1777488363 | 14.44° C | 61% | 1026 hPa | - | - | - | - |
| 1777487463 | 14.44° C | 60% | 1026 hPa | - | - | - | - |
| 1777486564 | 14.44° C | 59% | 1026 hPa | - | - | - | - |
| 1777485662 | 14.44° C | 58% | 1026 hPa | - | - | - | - |
| 1777484764 | 14.44° C | 59% | 1025.9 hPa | - | - | - | - |
| 1777483863 | 15° C | 58% | 1025.9 hPa | - | - | - | - |
| 1777482964 | 15° C | 58% | 1025.9 hPa | - | - | - | - |
| 1777481163 | 15° C | 58% | 1026 hPa | - | - | - | - |
| 1777480264 | 15.56° C | 58% | 1026 hPa | - | - | - | - |
* Rain since midnight (hover to see other rain measurements)
** Current wind speed in m/s (hover to see current wind gust speed)